Friday Harbor, WA

3:49 AM PDT on May 28, 2017 (GMT -0700)
Friday Harbor

Weather History for KFHR - February, 2012

Change the Weather History Date:

Saturday, February 25, 2012

  Actual Average Record
Temperature  
Mean Temperature 44 °F -  
Max Temperature 48 °F 46 °F 55 °F (2016)
Min Temperature 39 °F 34 °F 19 °F (2011)
Degree Days  
Heating Degree Days 22    
Moisture  
Dew Point 32 °F    
Average Humidity 70    
Maximum Humidity 93    
Minimum Humidity 48    
Precipitation  
Precipitation 0.06 in - - ()
Sea Level Pressure  
Sea Level Pressure 29.89 in    
Wind  
Wind Speed 6 mph (SW)    
Max Wind Speed 14 mph    
Max Gust Speed 26 mph    
Visibility 10 miles    
Events Rain    
Averages and records for this station are not official NWS values.
T = Trace of Precipitation, MM = Missing Value Source: NWS Daily Summary

Daily Weather History Graph

Daily Weather History Graph

Search for Another Location

Airport or City:

Trip Planner

Search our weather history database for the weather conditions in past years. The results will help you decide how hot, cold, wet, or windy it might be!

Date:

Astronomy

Feb. 25, 2012 Rise Set
Actual Time 7:02 AM PST 5:49 PM PST
Civil Twilight 6:30 AM PST 6:20 PM PST
Nautical Twilight 5:54 AM PST 6:57 PM PST
Astronomical Twilight 5:17 AM PST 7:33 PM PST
Moon 8:05 AM PST (2/25) 10:22 PM PST (2/25)
Length of Visible Light 11h 50m
Length of Day
10h 47m
Waxing Crescent, 14% of the Moon is Illuminated
Feb 25
Waxing Crescent
Feb 29
First Quarter
Mar 8
Full
Mar 14
Last Quarter
Mar 22
New

Hourly Weather History & Observations

Time (PST) Temp. Windchill Dew Point Humidity Pressure Visibility Wind Dir Wind Speed Gust Speed Precip Events Conditions
12:37 AM 41.0 °F - 39.2 °F 93% 29.56 in 10.0 mi Calm Calm - 0.00 in   Mostly Cloudy
12:53 AM 41.0 °F - 39.0 °F 93% 29.57 in 10.0 mi Calm Calm - 0.00 in   Overcast
1:53 AM 42.1 °F 36.1 °F 37.9 °F 85% 29.57 in 9.0 mi SW 10.4 mph 21.9 mph 0.01 in Rain Light Rain
2:53 AM 42.1 °F 35.7 °F 35.1 °F 76% 29.58 in 10.0 mi WSW 11.5 mph 26.5 mph 0.00 in   Overcast
3:53 AM 42.1 °F 37.1 °F 34.0 °F 73% 29.62 in 10.0 mi SW 8.1 mph 24.2 mph N/A   Overcast
4:53 AM 42.1 °F 37.7 °F 33.1 °F 70% 29.68 in 10.0 mi Variable 6.9 mph 20.7 mph 0.00 in Rain Light Rain
5:04 AM 39.2 °F - 33.8 °F 81% 29.70 in 5.0 mi Calm Calm - 0.01 in Rain Rain
5:53 AM 39.0 °F 36.8 °F 35.1 °F 86% 29.73 in 10.0 mi Variable 3.5 mph - 0.02 in Rain Light Rain
6:13 AM 39.2 °F 35.0 °F 35.6 °F 87% 29.74 in 10.0 mi WSW 5.8 mph - 0.00 in Rain Light Rain
6:28 AM 39.2 °F 32.5 °F 35.6 °F 87% 29.75 in 5.0 mi SW 10.4 mph - 0.02 in Rain Rain
6:53 AM 39.0 °F 32.3 °F 35.1 °F 86% 29.76 in 10.0 mi SSW 10.4 mph - 0.03 in Rain Light Rain
7:53 AM 39.0 °F 33.4 °F 35.1 °F 86% 29.82 in 10.0 mi SW 8.1 mph - 0.00 in   Overcast
8:53 AM 41.0 °F 38.0 °F 34.0 °F 76% 29.86 in 10.0 mi SW 4.6 mph - N/A   Overcast
9:53 AM 43.0 °F 39.5 °F 33.1 °F 68% 29.91 in 10.0 mi WSW 5.8 mph - N/A   Overcast
10:53 AM 44.1 °F 39.5 °F 30.9 °F 60% 29.94 in 10.0 mi SW 8.1 mph 18.4 mph N/A   Overcast
11:53 AM 45.0 °F 40.1 °F 30.9 °F 58% 29.98 in 10.0 mi WSW 9.2 mph 18.4 mph N/A   Overcast
12:53 PM 46.9 °F - 30.0 °F 52% 30.00 in 10.0 mi WSW 9.2 mph - N/A   Overcast
1:53 PM 48.0 °F - 28.9 °F 48% 30.01 in 10.0 mi SW 13.8 mph 21.9 mph N/A   Unknown
2:53 PM 46.9 °F - 28.9 °F 50% 30.04 in 10.0 mi SW 12.7 mph 20.7 mph N/A   Overcast
3:53 PM 45.0 °F 41.2 °F 30.9 °F 58% 30.06 in 10.0 mi Variable 6.9 mph 20.7 mph N/A   Overcast
4:53 PM 44.1 °F 38.6 °F 30.0 °F 58% 30.07 in 10.0 mi SW 10.4 mph 20.7 mph 0.00 in   Overcast
5:53 PM 42.1 °F 38.4 °F 30.9 °F 65% 30.08 in 10.0 mi WSW 5.8 mph - 0.00 in Rain Light Rain
6:53 PM 41.0 °F 39.0 °F 33.1 °F 73% 30.11 in 10.0 mi WSW 3.5 mph - 0.00 in Rain Light Rain
7:53 PM 41.0 °F 37.1 °F 30.9 °F 67% 30.11 in 10.0 mi WSW 5.8 mph - 0.00 in   Mostly Cloudy
8:53 PM 42.1 °F 37.7 °F 28.9 °F 60% 30.13 in 10.0 mi WSW 6.9 mph - N/A   Overcast
9:53 PM 41.0 °F 38.0 °F 28.0 °F 60% 30.14 in 10.0 mi WSW 4.6 mph - N/A   Mostly Cloudy
10:53 PM 39.9 °F 36.7 °F 25.0 °F 55% 30.14 in 10.0 mi Variable 4.6 mph - N/A   Clear
11:53 PM 39.0 °F - 26.1 °F 60% 30.15 in 10.0 mi Calm Calm - N/A   Clear